Regional Weather Roundup
Issued by NWS Boston, MA

Home | Current Version | Previous Version | Text Only | Print | Product List | Glossary On
Versions: 1 2 3 4 5 6 7 8 9 10 11 12 13 14 15 16 17 18 19 20 21 22 23 24 25 26 27 28 29 30 31 32 33 34 35 36 37 38 39 40 41 42 43 44 45 46 47 48 49 50
000
ASUS41 KBOX 040010
RWRBOX

REGIONAL WEATHER ROUNDUP
NATIONAL WEATHER SERVICE TAUNTON MA
800 PM EDT SUN MAY 03 2015

NOTE:  "FAIR" INDICATES FEW OR NO CLOUDS BELOW 12,000 FEET WITH NO
SIGNIFICANT WEATHER AND/OR OBSTRUCTIONS TO VISIBILITY.  THE FOLLOWING
OBSERVATION LOCATIONS DO NOT REPORT PRESENT WEATHER...PROVINCETOWN...
SMITHFIELD...BLOCK ISLAND...KEENE...AND OXFORD.

MAZALL-040100-
EASTERN MASSACHUSETTS

CITY           SKY/WX    TMP DP  RH WIND       PRES   REMARKS
BOSTON         MOCLDY    58  42  55 S14       30.10R
6HR MIN TEMP:  57; 6HR MAX TEMP:  67;

BEVERLY        CLEAR     61  41  47 S6        30.08R
LAWRENCE       CLEAR     65  42  43 S6        30.09R
BEDFORD        CLEAR     59  43  55 SW8       30.08R
BLUE HILL        N/A     53  41  63 S16G22    30.09R
NORWOOD        PTCLDY    55  41  59 S8        30.11R
MARSHFIELD     PTCLDY    55  39  54 SW10G20   30.13R
PLYMOUTH       MOCLDY    50  39  66 S9        30.14R
TAUNTON        PTCLDY    53  38  56 VRB7      30.13R
NEW BEDFORD    MOCLDY    50  43  77 SW9       30.15R
$$

MAZALL-040100-
CAPE COD AND THE ISLANDS

CITY           SKY/WX    TMP DP  RH WIND       PRES   REMARKS
FALMOUTH       CLEAR     50  39  66 S9        30.13
HYANNIS        CLEAR     50  37  61 S10       30.14R
CHATHAM        CLEAR     47  42  83 SW8       30.16S
PROVINCETOWN   CLEAR     48  39  71 S12       30.14R
NANTUCKET      CLEAR     45  40  82 S7        30.17R
MARTHAS VNYRD  CLEAR     46  42  86 SW7       30.16R
$$

MAZALL-040100-
CENTRAL AND WESTERN MASSACHUSETTS

CITY           SKY/WX    TMP DP  RH WIND       PRES   REMARKS
WORCESTER      MOCLDY    64  42  44 SW13      30.10R
6HR MIN TEMP:  64; 6HR MAX TEMP:  73;

FITCHBURG      MOCLDY    67  43  41 S5        30.09R
ORANGE         MOCLDY    67  40  37 SE6       30.06R
SPRINGFIELD    MOCLDY    67  41  38 S9        30.05R
WESTFIELD      MOCLDY    66  47  50 SE3       30.06R
NORTH ADAMS    PTCLDY    63  46  54 CALM      30.05R
PITTSFIELD     PTCLDY    69  36  29 S3        30.06R
$$

RIZALL-040100-
RHODE ISLAND

CITY           SKY/WX    TMP DP  RH WIND       PRES   REMARKS
PROVIDENCE     PTCLDY    52  39  61 S10       30.14R
6HR MIN TEMP:  52; 6HR MAX TEMP:  60;

NEWPORT        PTCLDY    49  42  77 S9        30.15R
BLOCK ISLAND   CLEAR     48  43  81 S12       30.14S
SMITHFIELD     PTCLDY    52  37  58 S3        30.12R
WESTERLY       CLEAR     50  42  74 S5        30.15R
$$

CTZALL-040100-
CONNECTICUT

CITY           SKY/WX    TMP DP  RH WIND       PRES   REMARKS
BRADLEY INTL   MOCLDY    71  43  36 S12       30.06R
6HR MIN TEMP:  70; 6HR MAX TEMP:  78;

HARTFORD       PTCLDY    67  44  43 S9        30.08R
BRIDGEPORT     PTCLDY    59  46  62 S13       30.10S
DANBURY        PTCLDY    68  40  35 S6        30.10R
GROTON         CLEAR     49  42  77 SE9       30.13R
NEW HAVEN      PTCLDY    56  45  66 SE9       30.11R
CHESTER        NOT AVBL
MERIDEN        PTCLDY    62  43  49 S8G17     30.10R
WILLIMANTIC    PTCLDY    62  45  53 S7        30.11R
OXFORD         PTCLDY    63  43  48 S8        30.10S
$$

MEZ002-015-021-024-NHZ003-005-008-011-012-014-VTZ005-008-040100-
NORTHERN NEW ENGLAND

CITY           SKY/WX    TMP DP  RH WIND       PRES   REMARKS
PORTLAND ME    PTCLDY    53  44  71 S6        30.08R
6HR MIN TEMP:  53; 6HR MAX TEMP:  61;

BANGOR ME      PTCLDY    52  42  69 S9        30.07R
CONCORD NH     MOCLDY    69  36  29 SE8       30.05R
MANCHESTER NH  PTCLDY    69  38  32 S8        30.05R
NASHUA NH      PTCLDY    69  43  39 S3        30.07R
PORTSMOUTH NH  PTCLDY    58  45  62 SE8       30.05R
JAFFREY NH     MOCLDY    63  42  46 CALM      30.08R
KEENE NH       MOCLDY    68  39  34 S3        30.06R
BURLINGTON VT  MOCLDY    73  38  27 SW3       30.01R
MT. WASHINGTON MOCLDY    43  27  52 W16         N/A
$$

NYZ052-076-040100-
EASTERN NEW YORK

CITY           SKY/WX    TMP DP  RH WIND       PRES   REMARKS
ALBANY         PTCLDY    73  38  27 CALM      30.04R
6HR MIN TEMP:  73; 6HR MAX TEMP:  80;

NEW YORK CITY  MOCLDY    65  41  41 S8        30.08S
6HR MIN TEMP:  64; 6HR MAX TEMP:  76;

$$

ANZALL-040100-
MARINE OBSERVATIONS

STATION/POSITION TIME  TEMP    WIND        PRES    VSBY  WAVE
                       AIR SEA DIR/SP/G                  HT/PER
                 (UTC) (F)     (DEG/KT/KT) (MB)    (MI)  (FT/S)
BOSTON BUOY      2350   51 46  190/ 10/ 12   N/A           3/10
BUZZARDS BAY     0000          180/ 11/ 12   N/A
NANTUCKET SOUND  2350   49 48  200/ 12/ 12   N/A           1/ 2
MASS BAY-STELLWA 2304   50 47  180/ 14/ 16   N/A    1 7/8  4/ 5
ISLE OF SHOALS   0000   56     190/ 18/ 19   N/A
S OF BLOCK IS    2308      46                N/A           4/ 8
$$

......................KEY.........................
  SKY/WX - SKY CONDITION/PRESENT WEATHER
  TMP    - TEMPERATURE IN FAHRENHEIT
  DWPT   - DEWPOINT IN FAHRENHEIT
  RH     - RELATIVE HUMIDITY IN PERCENT
  WIND   - DIRECTION AND SPEED IN MPH
  PRES   - MEAN SEA LEVEL PRESSURE IN INCHES OF HG
  WCI    - WIND CHILL INDEX
  VSB    - VISIBILITY IN MILES
  HX     - HEAT INDEX
  TC     - TEMPERATURE IN CELSIUS
  VRB    - VARIABLE WIND DIRECTION
  N/A    - NOT AVAILABLE


USA.gov is the U.S. government's official web portal to all federal, state and local government web resources and services.